When you browse on this site, cookies collect data to enhance your experience and personalize the content and advertising you see.
Visit our Privacy Policy to learn more. By continuing to use the site, you agree to this use of cookies and data.
  • In Portugal
  • List of Countries
  • For 7 days
  • Water Temperature
  • Satellite Maps
  • Weather Map
  • Weather Widgets
  • user-avatar
    Login

    Hourly Weather Bonarowka

    Today, 15 December, Saturday

    Time Temperature Precipitation Wind Pressure Humidity
    00:00 -4°C° 0 mm 3 mps 741 mmHg 90%
    01:00 -4°C° 0 mm 3 mps 741 mmHg 86%
    02:00 -5°C° 0 mm 3 mps 741 mmHg 85%
    03:00 -5°C° 0 mm 4 mps 741 mmHg 84%
    04:00 -5°C° 0 mm 4 mps 741 mmHg 83%
    05:00 -5°C° 0 mm 4 mps 741 mmHg 83%
    06:00 -5°C° 0 mm 4 mps 741 mmHg 83%
    07:00 -5°C° 0 mm 4 mps 741 mmHg 85%
    08:00 -6°C° 0 mm 5 mps 741 mmHg 82%
    09:00 -5°C° 0 mm 5 mps 741 mmHg 79%
    10:00 -5°C° 0 mm 6 mps 741 mmHg 76%
    11:00 -4°C° 0 mm 6 mps 741 mmHg 75%
    12:00 -4°C° 0 mm 6 mps 740 mmHg 74%
    13:00 -4°C° 0 mm 6 mps 740 mmHg 71%
    14:00 -4°C° 0.1 mm 6 mps 740 mmHg 74%
    15:00 -5°C° 0.1 mm 6 mps 740 mmHg 77%
    16:00 -5°C° 0.1 mm 6 mps 740 mmHg 81%
    17:00 -5°C° 0.5 mm 6 mps 739 mmHg 83%
    18:00 -5°C° 0.5 mm 6 mps 739 mmHg 86%
    19:00 -5°C° 0.5 mm 6 mps 739 mmHg 88%
    20:00 -5°C° 0.4 mm 5 mps 739 mmHg 88%
    21:00 -5°C° 0.4 mm 5 mps 738 mmHg 88%
    22:00 -5°C° 0.4 mm 5 mps 738 mmHg 88%
    23:00 -4°C° 0.1 mm 4 mps 738 mmHg 89%

    Tomorrow, 16 December, Sunday

    Time Temperature Precipitation Wind Pressure Humidity
    00:00 -4°C° 0.1 mm 4 mps 737 mmHg 89%
    01:00 -4°C° 0.1 mm 4 mps 737 mmHg 89%
    02:00 -4°C° 0.2 mm 3 mps 737 mmHg 90%
    03:00 -4°C° 0.2 mm 3 mps 736 mmHg 90%
    04:00 -4°C° 0.2 mm 3 mps 736 mmHg 91%
    05:00 -3°C° 0.2 mm 2 mps 736 mmHg 92%
    06:00 -3°C° 0.2 mm 2 mps 736 mmHg 92%
    07:00 -3°C° 0.2 mm 2 mps 736 mmHg 93%
    08:00 -3°C° 0.2 mm 2 mps 736 mmHg 92%
    09:00 -2°C° 0.2 mm 2 mps 736 mmHg 91%
    10:00 0°C° 0.2 mm 1 mps 736 mmHg 90%
    11:00 0°C° 0.1 mm 1 mps 736 mmHg 90%
    12:00 +1°C° 0.1 mm 1 mps 736 mmHg 90%
    13:00 +1°C° 0.1 mm 1 mps 736 mmHg 90%
    14:00 +1°C° 0.1 mm 1 mps 736 mmHg 92%
    15:00 0°C° 0.1 mm 1 mps 736 mmHg 93%
    16:00 0°C° 0.1 mm 1 mps 736 mmHg 95%
    17:00 0°C° 0 mm 1 mps 737 mmHg 95%
    18:00 -1°C° 0 mm 1 mps 737 mmHg 95%
    19:00 -1°C° 0 mm 1 mps 737 mmHg 95%
    20:00 -1°C° 0 mm 1 mps 737 mmHg 95%
    21:00 -1°C° 0 mm 1 mps 737 mmHg 94%
    22:00 -1°C° 0 mm 1 mps 737 mmHg 94%
    23:00 -3°C° 0 mm 2 mps 738 mmHg 94%

    Day after tomorrow, 17 December, Monday

    Time Temperature Precipitation Wind Pressure Humidity
    00:00 -3°C° 0 mm 2 mps 738 mmHg 93%
    01:00 -3°C° 0 mm 2 mps 738 mmHg 93%
    02:00 -4°C° 0 mm 2 mps 738 mmHg 93%
    03:00 -4°C° 0 mm 2 mps 738 mmHg 93%
    04:00 -4°C° 0 mm 2 mps 737 mmHg 93%
    05:00 -4°C° 0 mm 2 mps 738 mmHg 93%
    06:00 -3°C° 0 mm 1 mps 738 mmHg 93%
    07:00 -3°C° 0 mm 1 mps 738 mmHg 92%
    08:00 -2°C° 0 mm 1 mps 738 mmHg 90%
    09:00 -1°C° 0 mm 1 mps 738 mmHg 88%
    10:00 -1°C° 0 mm 1 mps 739 mmHg 86%
    11:00 0°C° 0 mm 1 mps 739 mmHg 85%
    12:00 0°C° 0 mm 1 mps 739 mmHg 83%
    13:00 +1°C° 0 mm 1 mps 739 mmHg 81%
    14:00 0°C° 0 mm 1 mps 739 mmHg 84%
    15:00 -1°C° 0 mm 1 mps 739 mmHg 86%
    16:00 -2°C° 0 mm 1 mps 740 mmHg 88%
    17:00 -2°C° 0 mm 1 mps 740 mmHg 88%
    18:00 -2°C° 0 mm 1 mps 741 mmHg 87%
    19:00 -2°C° 0 mm 1 mps 741 mmHg 87%
    20:00 -2°C° 0 mm 1 mps 741 mmHg 87%
    21:00 -2°C° 0 mm 1 mps 742 mmHg 87%
    22:00 -2°C° 0 mm 1 mps 742 mmHg 88%
    23:00 -2°C° 0 mm 1 mps 742 mmHg 89%

    18 December, Tuesday

    Time Temperature Precipitation Wind Pressure Humidity
    00:00 -2°C° 0 mm 1 mps 742 mmHg 89%
    01:00 -2°C° 0 mm 1 mps 743 mmHg 90%
    02:00 -2°C° 0 mm 1 mps 743 mmHg 91%
    03:00 -2°C° 0 mm 1 mps 743 mmHg 92%
    04:00 -2°C° 0 mm 1 mps 743 mmHg 94%
    05:00 -2°C° 0 mm 1 mps 743 mmHg 94%
    06:00 -2°C° 0 mm 1 mps 744 mmHg 94%
    07:00 -1°C° 0 mm 1 mps 744 mmHg 94%
    08:00 -1°C° 0 mm 1 mps 744 mmHg 93%
    09:00 0°C° 0 mm 1 mps 745 mmHg 92%
    10:00 0°C° 0 mm 1 mps 745 mmHg 92%
    11:00 +1°C° 0 mm 1 mps 745 mmHg 91%
    12:00 +1°C° 0 mm 1 mps 744 mmHg 91%
    13:00 +1°C° 0 mm 1 mps 744 mmHg 91%
    14:00 +1°C° 0 mm 1 mps 744 mmHg 92%
    15:00 0°C° 0 mm 1 mps 744 mmHg 92%
    16:00 0°C° 0 mm 1 mps 744 mmHg 93%
    17:00 0°C° 0 mm 1 mps 744 mmHg 93%
    18:00 -1°C° 0 mm 1 mps 745 mmHg 94%
    19:00 -1°C° 0 mm 1 mps 745 mmHg 94%
    20:00 -1°C° 0 mm 1 mps 745 mmHg 94%
    21:00 -1°C° 0 mm 1 mps 745 mmHg 94%
    22:00 -1°C° 0 mm 1 mps 744 mmHg 94%
    23:00 -2°C° 0 mm 1 mps 744 mmHg 95%

    19 December, Wednesday

    Time Temperature Precipitation Wind Pressure Humidity
    00:00 -2°C° 0 mm 1 mps 744 mmHg 95%
    01:00 -2°C° 0 mm 1 mps 744 mmHg 95%
    02:00 -2°C° 0 mm 1 mps 744 mmHg 96%
    03:00 -2°C° 0 mm 1 mps 744 mmHg 96%
    04:00 -2°C° 0 mm 1 mps 744 mmHg 97%
    05:00 -2°C° 0 mm 1 mps 744 mmHg 96%
    06:00 -4°C° 0 mm 2 mps 744 mmHg 96%
    07:00 -4°C° 0 mm 2 mps 744 mmHg 95%
    08:00 -4°C° 0 mm 2 mps 744 mmHg 93%
    09:00 -3°C° 0 mm 2 mps 744 mmHg 91%
    10:00 -3°C° 0 mm 2 mps 744 mmHg 89%
    11:00 -3°C° 0 mm 2 mps 744 mmHg 88%
    12:00 -2°C° 0 mm 2 mps 744 mmHg 87%
    13:00 -2°C° 0 mm 3 mps 744 mmHg 86%
    14:00 -2°C° 0 mm 3 mps 744 mmHg 88%
    15:00 -3°C° 0 mm 2 mps 744 mmHg 89%
    16:00 -3°C° 0 mm 2 mps 744 mmHg 91%
    17:00 -4°C° 0 mm 2 mps 744 mmHg 91%
    18:00 -4°C° 0 mm 2 mps 744 mmHg 92%
    19:00 -4°C° 0 mm 2 mps 744 mmHg 92%
    20:00 -4°C° 0 mm 2 mps 744 mmHg 92%
    21:00 -4°C° 0 mm 2 mps 744 mmHg 92%
    22:00 -5°C° 0 mm 3 mps 744 mmHg 92%
    23:00 -6°C° 0 mm 3 mps 743 mmHg 91%

    20 December, Thursday

    Time Temperature Precipitation Wind Pressure Humidity
    00:00 -6°C° 0 mm 3 mps 743 mmHg 91%
    01:00 -6°C° 0 mm 3 mps 743 mmHg 91%
    02:00 -5°C° 0 mm 3 mps 743 mmHg 90%
    03:00 -5°C° 0 mm 3 mps 743 mmHg 90%
    04:00 -5°C° 0 mm 3 mps 743 mmHg 90%
    05:00 -5°C° 0 mm 3 mps 743 mmHg 90%
    06:00 -5°C° 0 mm 3 mps 742 mmHg 90%
    07:00 -5°C° 0 mm 3 mps 742 mmHg 90%
    08:00 -4°C° 0 mm 4 mps 742 mmHg 88%
    09:00 -4°C° 0 mm 4 mps 743 mmHg 86%
    10:00 -3°C° 0 mm 4 mps 743 mmHg 85%
    11:00 -2°C° 0 mm 4 mps 742 mmHg 84%
    12:00 -2°C° 0 mm 4 mps 742 mmHg 83%
    13:00 -1°C° 0 mm 4 mps 742 mmHg 82%
    14:00 -1°C° 0 mm 3 mps 742 mmHg 84%
    15:00 -2°C° 0 mm 3 mps 742 mmHg 85%
    16:00 -4°C° 0 mm 3 mps 742 mmHg 87%
    17:00 -4°C° 0 mm 3 mps 742 mmHg 87%
    18:00 -4°C° 0 mm 3 mps 742 mmHg 86%
    19:00 -4°C° 0 mm 3 mps 742 mmHg 86%
    20:00 -3°C° 0 mm 2 mps 742 mmHg 85%
    21:00 -3°C° 0 mm 2 mps 742 mmHg 84%
    22:00 -3°C° 0 mm 2 mps 742 mmHg 84%
    23:00 -3°C° 0 mm 2 mps 742 mmHg 83%
    Show more